Weather History for KCFV - July, 2014

Change the Weather History Date:

Monday, July 21, 2014

  Actual Average Record
Temperature  
Mean Temperature 80 °F -  
Max Temperature 91 °F 89 °F 105 °F (2012)
Min Temperature 68 °F 68 °F 68 °F (2014)
Cooling Degree Days 14    
Growing Degree Days 30 (Base 50)    
Moisture  
Dew Point 71 °F    
Average Humidity 78    
Maximum Humidity 93    
Minimum Humidity 59    
Precipitation  
Precipitation 0.00 in - - ()
Sea Level Pressure  
Sea Level Pressure 29.99 in    
Wind  
Wind Speed 9 mph (South)    
Max Wind Speed 14 mph    
Max Gust Speed -    
Visibility 8 miles    
Events      
Averages and records for this station are not official NWS values.
T = Trace of Precipitation, MM = Missing Value Source: NWS Daily Summary

Daily Weather History Graph

Daily Weather History Graph

Search for Another Location

Airport or City:

Trip Planner

Search our weather history database for the weather conditions in past years. The results will help you decide how hot, cold, wet, or windy it might be!

Date:

Astronomy

Jul. 21, 2014 Rise Set
Actual Time 6:18 AM CDT 8:38 PM CDT
Civil Twilight 5:48 AM CDT 9:07 PM CDT
Nautical Twilight 5:12 AM CDT 9:44 PM CDT
Astronomical Twilight 4:32 AM CDT 10:24 PM CDT
Moon 2:08 AM CDT (7/21) 4:23 PM CDT (7/21)
Length of Visible Light 15h 18m
Length of Day
14h 19m
Waning Crescent, 24% of the Moon is Illuminated
Jul 21
Waning Crescent
Jul 26
New
Aug 3
First Quarter
Aug 10
Full
Aug 17
Last Quarter

Hourly Weather History & Observations

Time (CDT) Temp. Heat Index Dew Point Humidity Pressure Visibility Wind Dir Wind Speed Gust Speed Precip Events Conditions
12:52 AM 71.1 °F - 66.0 °F 84% 29.96 in 9.0 mi South 8.1 mph - N/A   Clear
1:52 AM 70.0 °F - 66.0 °F 87% 29.96 in 8.0 mi South 9.2 mph - N/A   Clear
2:52 AM 70.0 °F - 64.9 °F 84% 29.96 in 7.0 mi South 6.9 mph - N/A   Clear
3:52 AM 69.1 °F - 64.9 °F 87% 29.96 in 6.0 mi SSE 6.9 mph - N/A   Clear
4:52 AM 68.0 °F - 64.9 °F 90% 29.96 in 7.0 mi SSE 5.8 mph - N/A   Clear
5:52 AM 68.0 °F - 66.0 °F 93% 29.99 in 8.0 mi SSE 5.8 mph - N/A   Clear
6:52 AM 69.1 °F - 66.0 °F 90% 30.00 in 9.0 mi SSE 5.8 mph - N/A   Clear
7:52 AM 71.1 °F - 66.9 °F 87% 30.02 in 10.0 mi South 10.4 mph - N/A   Clear
8:52 AM 75.0 °F - 68.0 °F 79% 30.03 in 10.0 mi South 11.5 mph - N/A   Clear
9:52 AM 80.1 °F 83.2 °F 70.0 °F 71% 30.03 in 10.0 mi South 13.8 mph - N/A   Clear
10:52 AM 82.0 °F 86.3 °F 71.1 °F 69% 30.04 in 10.0 mi South 11.5 mph - N/A   Clear
11:52 AM 84.9 °F 90.7 °F 72.0 °F 65% 30.03 in 10.0 mi South 13.8 mph - N/A   Clear
12:52 PM 89.1 °F 98.0 °F 73.9 °F 61% 30.02 in 10.0 mi South 12.7 mph - N/A   Clear
4:52 PM 91.0 °F 101.6 °F 75.0 °F 59% 29.97 in 10.0 mi SSE 11.5 mph - N/A   Clear
5:52 PM 91.0 °F 101.6 °F 75.0 °F 59% 29.96 in 10.0 mi South 13.8 mph - N/A   Clear
6:52 PM 89.1 °F 99.1 °F 75.0 °F 63% 29.95 in 10.0 mi South 11.5 mph - N/A   Clear
7:52 PM 87.1 °F 95.4 °F 73.9 °F 65% 29.95 in 10.0 mi South 11.5 mph - N/A   Clear
8:52 PM 82.9 °F 89.4 °F 73.9 °F 74% 29.96 in 9.0 mi South 6.9 mph - N/A   Clear
9:52 PM 80.1 °F 85.1 °F 75.0 °F 85% 29.98 in 6.0 mi SSE 6.9 mph - N/A   Haze
10:10 PM 80.1 °F 84.5 °F 73.9 °F 81% 30.01 in 1.8 mi South 5.8 mph - N/A   Haze
10:32 PM 79.0 °F - 73.9 °F 84% 30.02 in 2.5 mi South 6.9 mph - N/A   Haze
10:52 PM 79.0 °F - 73.9 °F 84% 29.99 in 3.0 mi South 6.9 mph - N/A   Haze
11:36 PM 78.1 °F - 73.9 °F 87% 30.03 in 3.0 mi SSE 5.8 mph - N/A   Clear
11:52 PM 78.1 °F - 73.0 °F 84% 30.01 in 6.0 mi SSE 4.6 mph - N/A   Haze